Flag for Sweden Weather past 2 weeks in Örebro, Sweden

Now
43 °F

Clear.


Feels Like: 43 °F
Forecast: 36 / 55 °F
Wind: No wind

Location: Orebro Private

Current Time: Sep 30, 2014 at 8:53:14 PM

Latest Report: Sep 30, 2014 at 8:20 PM


Visibility: 10 mi

Pressure: 30.39 "Hg

Humidity: 87%

Dew point: 39 °F

Location of ÖrebroLocation

Historic Weather in Örebro — Graph

°F

Örebro temperature yesterday

Maximum temperature yesterday: 63 °F (at 12:20 PM)
Minimum temperature yesterday: 39 °F (at 10:50 PM)
Average temperature yesterday: 57 °F

Past Weeks' High & Low Weather Summary

 TemperatureHumidityPressure
High66 °F (Sep 16, 12:50 PM)100% (Sep 15, 10:20 PM)30.42 "Hg (Sep 15, 10:20 PM)
Low28 °F (Sep 23, 6:20 AM)42% (Sep 30, 3:20 PM)29.53 "Hg (Sep 25, 4:20 AM)
Average51 °F84%29.98 "Hg
* Reported Sep 15 7:20 PM — Sep 30 7:50 PM, Örebro, Weather by CustomWeather, © 2014

Note: Actual official high and low records may vary slightly from our data, if they occured in-between our weather recording intervals... More about our weather records

Advertising

Örebro weather history for previous 24 hours

 ConditionsComfort  
Time TempWeatherWind HumidityBarometerVisibility
7:50 PM
Sep 30
43 °FClear.2 mph87%30.39 "Hg10 mi
7:20 PM45 °FSunny.2 mph87%30.36 "Hg10 mi
6:50 PM46 °FSunny.2 mph82%30.36 "Hg10 mi
6:20 PM52 °FSunny.3 mph67%30.36 "Hg10 mi
5:50 PM57 °FSunny.3 mph55%30.36 "Hg10 mi
5:20 PM57 °FSunny.2 mph48%30.36 "Hg10 mi
4:50 PM59 °FPassing clouds.3 mph45%30.36 "HgN/A
4:20 PM59 °FSunny.2 mph45%30.36 "Hg10 mi
3:50 PM59 °FPassing clouds.3 mph45%30.36 "HgN/A
3:20 PM59 °FSunny.2 mph42%30.36 "Hg10 mi
2:50 PM59 °FSunny.3 mph48%30.36 "Hg10 mi
2:20 PM57 °FPassing clouds.3 mph51%30.36 "HgN/A
1:50 PM57 °FSunny.2 mph51%30.36 "Hg10 mi
1:20 PM57 °FSunny.3 mph51%30.36 "Hg10 mi
12:50 PM55 °FSunny.2 mph55%30.36 "Hg10 mi
12:20 PM54 °FPassing clouds.3 mph58%30.36 "HgN/A
11:50 AM54 °FSunny.6 mph58%30.36 "Hg10 mi
11:20 AM52 °FPassing clouds.6 mph62%30.33 "HgN/A
10:50 AM50 °FSunny.7 mph67%30.33 "Hg10 mi
10:20 AM50 °FPassing clouds.5 mph67%30.33 "HgN/A
9:50 AM48 °FSunny.No wind71%30.33 "Hg10 mi
9:20 AM43 °FSunny.1 mph87%30.33 "Hg10 mi
8:50 AM39 °FSunny.1 mph93%30.33 "Hg10 mi
8:20 AM36 °FSunny.3 mph93%30.30 "Hg10 mi
7:50 AM32 °FClear.No wind100%30.30 "Hg10 mi
7:20 AM34 °FClear.No wind93%30.30 "Hg10 mi
6:50 AM32 °FClear.3 mph100%30.30 "Hg10 mi
6:20 AM32 °FClear.5 mph93%30.27 "Hg10 mi
5:50 AM34 °FClear.3 mph93%30.27 "Hg10 mi
5:20 AM34 °FChilly.5 mph93%30.27 "HgN/A
4:50 AM34 °FChilly.2 mph93%30.27 "HgN/A
4:20 AM36 °FClear.2 mph87%30.24 "Hg10 mi
3:20 AM36 °FClear.2 mph93%30.24 "Hg10 mi
2:50 AM37 °FClear.3 mph87%30.24 "Hg10 mi
2:20 AM43 °FClear.6 mph81%30.21 "Hg10 mi
1:50 AM41 °FClear.7 mph87%30.21 "Hg10 mi
1:20 AM43 °FClear.5 mph81%30.21 "Hg10 mi
12:50 AM45 °FClear.6 mph81%30.21 "Hg10 mi
12:20 AM43 °FClear.8 mph87%30.21 "Hg10 mi
11:50 PM
Sep 29
39 °FClear.5 mph93%30.18 "Hg10 mi
11:20 PM41 °FClear.5 mph87%30.18 "Hg10 mi
10:50 PM39 °FClear.2 mph93%30.18 "Hg10 mi
10:20 PM41 °FClear.3 mph87%30.18 "Hg10 mi
9:20 PM43 °FClear.6 mph87%30.15 "Hg10 mi
8:50 PM43 °FClear.6 mph87%30.15 "Hg10 mi
Weather by CustomWeather, © 2014

See weather overviewHow to use our weather pages